Location: Unspecified
(34.4950°S, 58.5160°W)
Time: 23:31:29
(UTC+00:00)

USA 215 - Pass Details

Date: 19 April 2026
Orbit: 1098 x 1109 km, 123.0° (Epoch: 10 January)

Event Time Altitude Azimuth Distance (km) Brightness Sun altitude
Rises 06:51:56 0° 65° (ENE) 3,927 6.6 -43.2°
Reaches altitude 10° 06:54:30 10° 71° (ENE) 2,972 6.0 -42.7°
Enters shadow 06:58:39 36° 98° (E) 1,686 4.5 -41.9°
